Date String (YYYY-MM-DD hh:mm:ss) UTC,Instrument flags,absolute air pressure of the measurement (hPa),sample flow rate (lpm),inlet stack bypass flow (lpm),air temperature of the measurement (°C),ambient temperature measured by the external sensor (°C),aerosol sample conditioner tube jacket temperature (°C),OPC LED temperature (°C),internal box temperature (°C),relative humidity of the measurement (%),span deviation,mass concentration of particles derived from Lorenz-Mie calculation of OPC scattering (μg/m³),mass concentration of particles derived from Lorenz-Mie calculation of OPC scattering (μg/m³),mass concentration of particles derived from Lorenz-Mie calculation of OPC scattering (μg/m³)
DateTimeUTC,F1_M11,P_M11,Q1_M11,Q2_M11,T1_M11,T2_M11,T3_M11,T4_M11,T5_M11,U1_M11,ZSPAN_M11,X2_M11,X0_M11,X1_M11
2023-06-22 04:00:00,SystemResetWarning,0832.7,5.01,000.00,030.4,026.7,000.0,038.9,031.2,34.1,0002.4,0007.72,0017.07,0005.88
2023-06-22 04:01:00,SystemResetWarning,0832.8,4.99,000.00,030.4,027.0,000.0,038.9,031.3,34.1,0002.4,0007.68,0016.95,0005.91
2023-06-22 04:02:00,SystemResetWarning,0832.7,4.99,000.00,030.4,027.3,000.0,038.9,031.3,33.9,0002.5,0007.74,0016.38,0005.94
2023-06-22 04:03:00,SystemResetWarning,0832.6,5.01,000.00,030.4,027.6,000.0,038.9,031.3,33.6,0002.3,0007.80,0017.13,0005.97
2023-06-22 04:04:00,SystemResetWarning,0832.6,5.01,000.00,030.4,027.8,000.0,038.8,031.4,33.3,0002.2,0007.92,0017.77,0005.99
2023-06-22 04:05:00,SystemResetWarning,0832.6,5.00,000.00,030.4,027.9,000.0,038.8,031.4,33.2,0002.0,0007.98,0017.74,0006.02
2023-06-22 04:06:00,SystemResetWarning,0832.5,5.00,000.00,030.4,028.1,000.0,038.8,031.4,33.2,0001.7,0008.05,0017.80,0006.02
2023-06-22 04:07:00,SystemResetWarning,0832.5,5.00,000.00,030.4,028.2,000.0,038.8,031.4,33.3,0001.3,0008.02,0017.63,0006.02
2023-06-22 04:08:00,SystemResetWarning,0832.6,5.00,000.00,030.4,028.2,000.0,038.8,031.5,33.5,0001.2,0008.02,0017.47,0006.07
2023-06-22 04:09:00,SystemResetWarning,0832.7,5.00,000.00,030.4,028.3,000.0,038.8,031.5,33.6,0000.7,0008.07,0017.26,0006.12
2023-06-22 04:10:00,SystemResetWarning,0832.7,5.00,000.00,030.4,028.4,000.0,038.9,031.5,33.7,0000.5,0008.14,0017.19,0006.21
2023-06-22 04:11:00,SystemResetWarning,0832.8,5.00,000.00,030.4,028.5,000.0,038.9,031.6,33.9,0000.3,0008.30,0017.26,0006.30
2023-06-22 04:12:00,SystemResetWarning,0832.8,5.00,000.00,030.4,028.5,000.0,038.9,031.7,34.0,0000.1,0008.43,0017.94,0006.41
2023-06-22 04:13:00,SystemResetWarning,0832.8,4.99,000.00,030.5,027.0,000.0,038.8,031.7,34.1,-000.4,0008.60,0018.71,0006.52
2023-06-22 04:14:00,SystemResetWarning,0832.8,5.01,000.00,030.4,025.3,000.0,038.7,031.6,34.0,-000.6,0008.70,0018.82,0006.59
2023-06-22 04:15:00,SystemResetWarning,0832.8,5.01,000.00,030.4,025.0,000.0,038.7,031.4,34.1,-000.3,0008.64,0018.82,0006.59
2023-06-22 04:16:00,SystemResetWarning,0833.2,5.01,000.00,030.2,025.2,000.0,038.7,031.1,34.3,-000.0,0008.61,0018.81,0006.60
2023-06-22 04:17:00,SystemResetWarning,0833.3,5.00,000.00,030.1,025.7,000.0,038.7,031.1,34.3,-000.2,0008.60,0019.11,0006.64
2023-06-22 04:18:00,SystemResetWarning,0833.3,5.00,000.00,030.1,026.2,000.0,038.7,031.1,34.5,0000.3,0008.68,0019.30,0006.69
2023-06-22 04:19:00,SystemResetWarning,0833.2,5.00,000.00,030.1,026.6,000.0,038.7,031.1,34.6,0000.6,0008.72,0019.40,0006.73
2023-06-22 04:20:00,SystemResetWarning,0833.2,4.99,000.00,030.1,026.9,000.0,038.6,031.1,34.7,0001.0,0008.86,0019.47,0006.79
2023-06-22 04:21:00,SystemResetWarning,0833.3,4.99,000.00,030.0,027.2,000.0,038.6,031.2,34.9,0001.3,0008.94,0019.67,0006.84
2023-06-22 04:22:00,SystemResetWarning,0833.2,5.03,000.00,030.1,027.5,000.0,038.6,031.3,34.9,0001.1,0009.00,0019.82,0006.88
2023-06-22 04:23:00,SystemResetWarning,0833.2,4.97,000.00,030.3,027.7,000.0,038.6,031.4,34.6,0000.6,0009.09,0019.80,0006.93
2023-06-22 04:24:00,SystemResetWarning,0832.9,5.03,000.00,030.3,027.8,000.0,038.6,031.4,34.4,0000.4,0009.15,0019.47,0006.99
2023-06-22 04:25:00,SystemResetWarning,0832.8,4.99,000.00,030.4,028.0,000.0,038.6,031.5,34.3,0000.7,0009.28,0019.22,0007.09
2023-06-22 04:26:00,SystemResetWarning,0832.8,4.99,000.00,030.4,028.1,000.0,038.7,031.5,34.2,0000.7,0009.54,0019.87,0007.26
2023-06-22 04:27:00,SystemResetWarning,0832.8,5.00,000.00,030.5,028.2,000.0,038.7,031.5,34.2,0000.9,0009.83,0020.71,0007.40
2023-06-22 04:28:00,SystemResetWarning,0832.8,5.01,000.00,030.5,028.3,000.0,038.7,031.6,34.2,0001.5,0010.01,0021.04,0007.52
2023-06-22 04:29:00,SystemResetWarning,0832.9,5.01,000.00,030.5,028.4,000.0,038.8,031.6,34.0,0001.4,0010.10,0020.96,0007.62
2023-06-22 04:30:00,SystemResetWarning,0832.8,5.01,000.00,030.5,028.5,000.0,038.8,031.6,34.0,0001.2,0010.21,0021.07,0007.68
2023-06-22 04:31:00,SystemResetWarning,0832.8,4.99,000.00,030.6,028.6,000.0,038.8,031.7,34.1,0001.1,0010.24,0021.43,0007.74
2023-06-22 04:32:00,SystemResetWarning,0832.8,4.99,000.00,030.6,028.4,000.0,038.9,031.7,34.3,0001.0,0010.26,0021.45,0007.78
2023-06-22 04:33:00,SystemResetWarning,0832.8,4.99,000.00,030.6,026.6,000.0,038.8,031.7,34.3,0001.4,0010.28,0022.32,0007.80
2023-06-22 04:34:00,SystemResetWarning,0832.8,5.01,000.00,030.6,025.3,000.0,038.7,031.6,34.6,0001.8,0010.19,0022.62,0007.79
2023-06-22 04:35:00,SystemResetWarning,0832.7,4.99,000.00,030.5,025.2,000.0,038.7,031.3,35.2,0001.8,0010.07,0022.88,0007.74
2023-06-22 04:36:00,SystemResetWarning,0832.7,5.03,000.00,030.4,025.5,000.0,038.7,031.2,35.6,0001.7,0010.06,0024.28,0007.71
2023-06-22 04:37:00,SystemResetWarning,0832.7,4.99,000.00,030.7,025.9,000.0,038.7,031.4,35.2,0001.7,0010.02,0024.05,0007.69
2023-06-22 04:38:00,SystemResetWarning,0832.8,5.00,000.00,031.0,026.4,000.0,038.8,031.5,34.3,0001.4,0009.98,0024.05,0007.67
2023-06-22 04:39:00,SystemResetWarning,0832.8,4.99,000.00,031.1,026.8,000.0,038.8,031.5,33.5,0001.3,0009.90,0023.71,0007.64
2023-06-22 04:40:00,SystemResetWarning,0832.7,5.02,000.00,031.3,027.1,000.0,038.9,031.5,33.2,0001.5,0009.84,0024.47,0007.60
2023-06-22 04:41:00,SystemResetWarning,0832.7,4.99,000.00,031.3,027.4,000.0,038.9,031.6,33.0,0001.5,0009.80,0024.39,0007.56
2023-06-22 04:42:00,SystemResetWarning,0832.7,4.99,000.00,031.3,027.6,000.0,039.0,031.6,33.0,0001.4,0009.73,0024.23,0007.49
2023-06-22 04:43:00,SystemResetWarning,0832.7,5.02,000.00,031.4,027.8,000.0,039.1,031.6,33.1,0001.6,0009.66,0024.65,0007.44
2023-06-22 04:44:00,SystemResetWarning,0832.7,5.00,000.00,031.4,028.0,000.0,039.2,031.7,33.0,0001.8,0009.61,0024.53,0007.41
2023-06-22 04:45:00,SystemResetWarning,0832.7,4.99,000.00,031.4,028.2,000.0,039.2,031.7,33.2,0002.1,0009.60,0024.83,0007.35
2023-06-22 04:46:00,SystemResetWarning,0832.7,4.99,000.00,031.4,028.3,000.0,039.3,031.7,33.2,0002.7,0009.61,0025.42,0007.31
2023-06-22 04:47:00,SystemResetWarning,0832.6,4.99,000.00,031.4,028.4,000.0,039.3,031.8,33.2,0003.0,0009.53,0024.23,0007.25
2023-06-22 04:48:00,SystemResetWarning,0832.6,5.00,000.00,031.4,028.4,000.0,039.4,031.8,33.0,0002.9,0009.34,0023.27,0007.15
2023-06-22 04:49:00,SystemResetWarning,0832.7,5.00,000.00,031.4,028.5,000.0,039.4,031.9,32.8,0003.3,0009.10,0022.81,0007.02
2023-06-22 04:50:00,SystemResetWarning,0832.7,5.00,000.00,031.4,028.6,000.0,039.5,031.9,32.6,0003.4,0008.98,0023.31,0006.91
2023-06-22 04:51:00,SystemResetWarning,0832.6,5.00,000.00,031.4,028.6,000.0,039.5,031.9,32.6,0003.4,0009.01,0022.58,0006.89
2023-06-22 04:52:00,SystemResetWarning,0832.6,5.00,000.00,031.4,028.7,000.0,039.5,032.0,32.9,0003.6,0009.01,0022.69,0006.90
2023-06-22 04:53:00,SystemResetWarning,0832.6,4.99,000.00,031.4,028.3,000.0,039.5,032.0,32.9,0003.7,0009.02,0022.37,0006.93
2023-06-22 04:54:00,SystemResetWarning,0832.6,5.00,000.00,031.4,026.2,000.0,039.4,031.9,32.4,0003.7,0009.03,0021.79,0006.94
2023-06-22 04:55:00,SystemResetWarning,0832.6,5.00,000.00,031.4,025.2,000.0,039.4,031.9,32.1,0003.3,0009.07,0021.59,0006.94
2023-06-22 04:56:00,SystemResetWarning,0832.5,5.00,000.00,031.2,025.2,000.0,039.4,031.5,32.2,0003.0,0009.14,0021.03,0006.97
2023-06-22 04:57:00,SystemResetWarning,0832.5,5.01,000.00,031.1,025.6,000.0,039.4,031.4,32.4,0002.8,0009.17,0019.64,0006.99
2023-06-22 04:58:00,SystemResetWarning,0832.6,4.99,000.00,031.0,026.0,000.0,039.3,031.4,32.1,0002.7,0009.22,0019.59,0007.03
2023-06-22 04:59:00,SystemResetWarning,0832.5,5.00,000.00,030.9,026.5,000.0,039.3,031.4,31.8,0002.5,0009.29,0020.38,0007.09
